Theta_e
315 316 316 317 317 317 317 318 318 318 318 318 318 318 318 318 318 308 299 306 311 317 317 308 305 304 304 306 309 309 297 293 296 297 298 302 298 302 302 300 302 305 303 308 309
315 315 316 316 316 317 317 317 318 318 318 317 317 317 317 317 310 300 308 313 315 316 305 303 302 301 299 302 305 300 295 297 299 299 297 300 298 298 296 297 298 300 304 308 307
315 315 315 315 316 316 317 317 317 317 318 317 317 317 317 315 305 299 311 313 314 312 306 305 303 301 298 301 301 301 296 299 298 299 299 297 296 298 295 294 297 297 299 303 304
315 315 316 316 316 316 316 317 317 317 317 317 317 317 318 310 294 302 312 313 315 310 304 303 302 298 297 296 300 294 300 299 301 299 297 296 298 295 296 296 300 297 297 297 298
316 316 316 316 316 316 317 316 316 317 317 317 317 318 311 301 298 304 313 311 307 305 302 302 299 299 295 297 297 294 295 297 297 297 296 297 293 293 294 297 298 299 299 295 295
317 317 316 316 316 316 317 317 316 316 317 317 317 316 306 295 303 305 304 305 305 304 302 303 301 301 297 296 295 296 295 295 295 295 294 292 291 292 294 296 297 297 296 296 296
318 317 317 316 316 316 317 317 316 316 315 316 315 310 301 297 304 304 305 304 304 304 302 304 304 300 298 295 298 296 290 293 293 294 292 292 288 289 294 296 294 294 295 295 296
318 317 317 317 317 317 317 317 314 313 313 313 313 306 297 303 304 302 303 303 306 306 305 305 304 301 298 298 295 290 290 287 290 291 291 288 285 293 294 292 292 293 293 294 294
318 317 317 317 317 317 317 316 312 312 312 312 306 302 295 304 299 302 302 299 302 304 304 302 302 296 294 290 288 289 283 287 287 290 289 287 285 292 293 292 290 292 291 292 293
319 318 318 318 317 317 316 315 311 308 307 304 301 298 295 295 300 300 302 301 300 300 300 298 296 291 289 287 285 283 282 287 285 287 288 286 286 291 293 293 292 292 292 292 292
319 319 319 318 317 317 311 308 304 301 305 294 294 295 296 299 301 299 300 298 299 295 289 294 287 285 286 287 287 286 284 284 288 288 284 285 286 289 291 292 291 291 291 290 291
318 319 319 318 317 316 312 300 297 296 292 296 296 295 297 298 292 296 300 293 293 289 291 288 284 288 290 289 287 285 282 283 288 288 285 285 284 289 291 291 290 289 288 290 291
316 317 318 317 316 312 303 300 305 303 292 293 296 295 295 296 293 293 295 294 290 288 288 285 287 290 288 286 286 284 282 281 281 285 286 283 283 289 289 289 290 290 290 292 291
314 317 316 314 311 307 302 304 305 302 292 293 290 293 295 296 291 296 296 293 291 287 287 286 288 287 284 285 286 280 285 285 283 280 277 282 273 284 289 288 289 290 289 289 291
312 315 313 312 308 304 303 304 303 300 283 291 289 296 295 291 291 292 296 293 287 288 286 285 284 283 284 286 287 283 286 284 282 280 273 278 272 283 286 285 288 289 289 290 291
309 313 313 312 311 304 303 300 299 288 282 286 290 289 288 290 290 292 292 294 292 288 287 285 288 287 286 287 286 287 283 282 280 279 270 276 276 281 286 287 288 290 290 291 292
309 312 310 309 305 308 305 300 287 284 291 286 285 288 286 286 287 288 287 285 284 282 282 284 284 286 288 283 286 284 279 278 277 273 275 278 273 281 288 290 287 288 289 291 291
310 311 307 306 307 306 303 293 281 285 286 287 287 287 284 285 284 285 284 282 286 284 281 281 280 284 287 284 281 281 279 277 271 274 274 277 273 283 287 287 288 290 289 290 290
307 309 308 307 307 305 300 284 284 287 292 285 287 284 283 284 283 283 283 283 285 285 280 281 279 285 286 286 284 280 277 281 274 267 270 276 282 288 288 287 287 287 287 287 289
300 304 304 308 308 303 290 286 286 294 292 290 286 288 283 282 281 282 283 285 284 286 285 282 278 282 283 286 285 282 283 277 277 268 268 276 278 280 284 285 286 287 287 288 288
299 295 300 306 305 297 285 285 287 294 295 291 286 284 287 282 283 283 282 284 286 285 285 283 280 279 282 280 280 278 279 279 279 277 272 271 277 284 283 283 285 287 289 288 289
297 286 300 302 289 286 285 286 291 292 295 292 288 287 285 286 282 283 284 286 288 286 281 284 282 275 279 281 283 282 280 281 277 275 276 275 274 286 286 286 287 288 289 289 290
291 291 299 297 284 284 286 287 291 289 290 289 287 289 289 285 278 284 281 285 287 285 283 283 278 272 275 277 280 277 280 281 279 278 273 274 275 286 287 289 292 290 290 291 291
291 284 288 289 291 286 284 283 282 291 290 291 290 290 284 282 286 280 282 285 286 282 288 288 281 277 273 278 281 276 278 280 278 271 275 276 279 285 287 288 289 289 288 288 288
290 285 287 281 283 285 287 284 283 281 290 291 286 286 284 278 282 276 282 286 285 288 286 285 279 278 279 280 281 281 281 279 277 278 273 280 280 284 287 287 289 288 287 287 285
286 285 289 285 286 284 284 282 283 285 285 283 285 287 287 280 283 279 283 283 283 283 282 282 275 272 269 277 279 279 280 280 280 281 280 280 280 287 289 287 286 283 284 283 282
292 293 289 285 284 282 282 282 283 286 287 289 287 286 283 287 290 290 291 289 286 282 279 281 276 275 269 272 270 270 275 279 280 281 281 277 282 286 284 283 282 279 283 282 282
Wind_Speed
11 12 12 13 13 14 14 14 14 14 14 14 14 14 14 15 15 5 4 7 8 14 13 9 6 4 5 3 4 3 3 5 6 1 2 6 2 6 1 5 4 3 3 9 6
10 11 11 12 13 13 14 14 14 14 14 14 14 14 13 14 7 6 3 8 9 9 6 7 1 4 4 3 3 3 3 4 5 7 5 4 2 6 3 6 8 7 6 9 6
9 11 11 12 13 13 14 14 15 14 14 14 14 14 14 11 5 4 8 10 10 10 4 5 6 4 7 1 5 4 5 5 6 6 8 6 7 5 5 8 11 8 4 9 8
10 10 11 12 13 13 14 14 15 15 15 15 15 14 14 6 2 4 8 8 10 8 4 4 4 3 3 5 3 4 9 3 3 5 4 5 7 6 10 11 10 4 4 6 4
10 11 11 12 13 14 15 15 14 14 14 14 15 13 8 5 4 4 7 5 6 3 3 4 4 5 5 2 2 8 7 5 4 2 7 8 10 9 15 13 10 7 6 5 6
10 11 12 12 13 15 16 16 16 15 14 14 13 11 5 4 2 4 5 4 7 6 4 4 4 5 5 3 2 6 7 9 6 4 5 7 7 5 8 2 6 7 9 8 8
9 9 10 12 13 15 16 18 18 16 12 11 8 5 6 2 1 5 3 2 4 6 2 3 3 3 5 4 5 5 6 8 8 2 2 5 9 14 16 5 4 6 7 5 9
10 10 10 11 14 16 18 19 16 9 5 4 4 4 2 2 6 5 8 1 1 2 2 1 4 2 2 2 5 4 3 3 2 1 4 1 9 2 5 1 6 9 8 8 8
10 10 11 11 13 16 19 18 9 7 6 4 4 3 3 2 2 4 5 5 5 1 2 3 3 2 3 3 4 4 3 3 4 2 2 3 9 5 6 6 9 8 8 8 8
10 10 10 11 13 16 20 12 2 4 4 4 4 2 3 2 2 3 1 5 4 3 3 4 4 3 4 4 3 2 3 2 4 3 2 8 21 19 12 10 9 8 8 8 7
10 7 8 10 12 17 12 2 2 2 1 2 2 4 1 4 2 3 2 4 4 5 4 2 3 6 4 5 4 2 4 7 6 6 4 6 15 24 9 11 10 8 6 1 4
11 7 7 8 12 16 8 3 3 0 5 3 1 3 2 2 3 3 4 4 4 5 4 2 5 6 5 4 1 1 4 4 5 4 3 7 20 25 18 8 2 5 3 7 5
13 9 7 7 9 5 5 4 1 2 4 3 2 2 2 3 2 3 6 2 4 5 5 6 4 3 1 3 2 4 4 2 2 8 5 9 9 7 1 3 4 3 2 8 8
17 10 6 10 5 2 3 2 2 2 3 3 3 2 2 1 1 3 5 3 2 4 1 4 3 0 1 2 2 2 6 5 4 6 3 4 8 10 3 4 6 7 6 6 7
16 11 7 6 3 1 2 2 3 3 4 4 3 2 0 2 2 2 0 3 5 1 1 1 4 3 3 1 2 2 3 3 2 2 4 1 3 12 1 3 7 8 9 8 8
17 13 9 3 1 2 1 2 1 5 8 1 1 1 2 1 2 1 1 3 1 3 2 2 2 3 3 4 4 4 2 4 2 3 2 2 3 9 1 2 4 5 6 7 8
18 11 5 4 2 1 1 2 4 4 4 4 1 0 0 1 1 1 1 2 2 2 2 2 2 3 2 2 1 2 2 1 3 2 5 5 3 12 13 9 2 4 6 6 6
17 1 2 2 1 2 2 4 5 2 5 2 2 2 2 1 1 0 1 3 6 1 3 4 3 2 3 3 3 5 1 4 4 3 3 4 6 9 3 3 6 6 6 6 6
19 2 2 1 1 1 1 4 4 4 2 3 1 3 3 2 0 1 5 2 1 5 5 2 2 3 5 3 3 1 1 3 4 2 3 5 6 9 10 7 7 4 2 3 5
6 3 2 1 2 1 2 8 6 3 3 4 4 3 4 4 1 1 5 3 3 2 3 1 1 2 2 2 3 3 0 1 3 3 5 4 3 4 9 7 6 8 8 7 3
4 3 2 1 1 2 7 7 6 6 5 6 5 2 4 4 4 3 3 1 1 3 1 3 2 1 2 5 5 2 2 2 0 3 4 3 6 3 4 1 4 5 5 6 5
4 4 1 3 5 3 7 6 5 4 5 4 2 5 4 4 3 4 5 3 4 4 3 1 1 2 2 4 5 3 2 4 3 2 2 2 9 1 7 4 1 7 8 6 5
4 2 2 2 7 9 4 5 7 5 7 6 7 7 5 4 1 5 2 1 5 2 3 3 2 1 4 3 2 3 4 4 4 3 6 3 7 5 7 11 16 13 10 8 8
4 3 1 1 2 4 10 7 6 7 11 8 4 5 3 4 5 3 3 4 5 4 1 4 1 5 6 4 4 3 4 7 6 3 4 11 16 17 18 14 10 15 10 8 7
3 5 4 4 8 11 8 6 11 8 7 8 5 8 7 5 4 5 4 5 5 8 3 3 5 4 4 5 6 6 9 9 11 13 7 17 17 21 17 18 19 8 7 8 8
3 3 2 3 5 13 18 18 16 8 8 5 11 11 14 10 8 8 7 6 5 6 6 3 2 3 5 8 10 14 16 10 16 17 18 22 25 23 19 7 14 8 8 8 6
5 3 2 6 8 10 14 15 15 15 10 15 10 12 8 14 10 6 1 3 3 7 6 6 4 3 6 1 2 10 12 18 12 10 12 17 23 14 7 8 7 7 6 7 8
Wind_Direction
355 353 350 349 350 348 347 344 339 341 338 335 338 337 338 332 311 240 48 337 316 321 319 269 253 231 244 243 280 283 281 263 264 183 70 115 267 118 46 313 297 202 322 123 123
350 349 347 343 341 341 340 339 336 333 329 330 330 330 332 329 282 66 11 333 323 329 332 348 347 197 221 224 213 235 243 326 17 16 3 48 167 328 316 244 232 242 233 144 158
346 346 342 342 341 338 334 333 331 328 324 322 323 328 326 320 266 70 360 335 323 305 277 294 290 285 266 235 219 207 232 60 27 27 10 309 311 266 243 259 235 258 256 194 168
332 334 337 336 334 332 329 327 325 323 319 317 319 322 321 265 310 38 338 317 307 285 291 290 241 239 246 201 182 287 237 2 12 79 308 280 322 290 262 241 292 333 300 331 173
323 325 326 327 326 325 324 321 317 312 308 309 311 316 306 228 88 3 332 330 280 278 18 348 278 258 267 314 34 231 278 344 271 211 244 264 266 261 264 261 272 278 262 232 267
314 316 318 319 319 319 318 314 309 303 302 302 304 311 238 249 303 7 354 339 6 346 42 357 19 357 284 301 254 357 317 288 283 282 275 265 268 310 257 337 241 248 250 223 226
298 301 306 311 314 315 313 313 310 301 288 286 293 284 256 46 4 349 3 24 344 2 31 47 331 262 360 253 19 283 296 277 218 76 311 341 271 225 243 184 243 231 255 252 230
295 299 300 303 307 312 312 313 317 312 285 270 286 276 41 52 334 1 337 199 14 9 10 337 321 319 270 24 224 244 210 282 94 172 155 224 278 274 109 160 224 240 227 225 224
286 292 299 306 311 312 312 312 300 303 284 261 232 229 111 137 245 349 351 340 307 256 289 275 257 312 147 230 263 180 266 260 148 96 307 207 283 194 159 201 233 237 237 233 225
284 293 303 311 316 316 317 296 259 294 243 248 271 226 177 57 12 330 312 300 302 273 238 225 228 230 218 192 219 13 332 346 284 68 318 270 267 272 268 263 264 247 240 235 230
283 292 304 309 316 319 330 231 251 189 10 324 6 302 124 357 131 191 10 301 237 233 230 174 229 218 63 64 59 345 289 276 318 66 336 268 288 288 280 274 272 265 262 150 86
342 324 312 310 315 317 296 43 62 117 307 180 266 240 34 340 274 137 312 243 207 248 126 188 225 59 70 68 45 242 289 296 294 30 335 311 298 284 287 258 168 82 103 121 156
350 334 315 303 306 309 55 51 23 277 260 137 84 351 50 313 358 54 329 347 263 251 207 265 82 90 43 134 292 246 226 343 236 330 258 319 278 301 48 96 116 150 173 148 162
356 339 344 316 288 343 76 52 318 315 350 185 159 108 192 292 147 14 6 323 239 283 155 273 65 169 137 268 146 259 29 47 333 17 287 28 280 300 292 175 186 185 194 170 154
349 341 350 3 326 340 36 360 319 260 297 37 94 5 330 328 352 101 49 260 312 305 289 166 150 154 213 94 152 125 48 49 9 70 30 292 71 272 200 237 200 196 183 183 172
339 333 326 267 164 63 0 330 287 51 243 83 101 184 228 144 123 106 194 202 206 325 216 12 1 342 38 76 30 104 237 166 144 111 8 230 112 289 313 155 91 161 173 180 163
331 317 322 318 20 8 272 269 42 226 1 285 155 281 57 60 139 347 231 197 199 42 230 138 160 55 334 155 149 231 251 310 306 349 224 130 68 251 306 335 124 162 156 180 143
340 134 32 33 356 357 246 49 204 211 237 7 245 225 266 119 152 141 270 280 221 233 302 201 297 152 137 358 358 208 25 147 244 314 300 25 239 256 194 87 35 89 114 100 103
325 242 174 101 318 345 113 222 236 208 193 145 182 231 174 155 357 232 207 263 74 206 202 339 130 101 35 8 23 73 333 342 92 64 58 232 264 289 34 43 22 93 96 176 121
321 267 166 96 305 246 115 233 238 267 120 87 218 181 211 171 73 114 189 160 155 320 7 5 185 347 148 238 59 69 335 22 359 332 279 275 255 236 20 6 46 45 34 60 87
274 238 72 295 274 174 218 224 246 235 225 210 207 268 281 160 191 207 271 107 3 112 4 340 95 190 169 194 165 132 198 193 71 171 217 314 268 78 166 140 40 343 324 288 320
264 241 40 319 183 193 218 194 245 233 231 240 238 217 215 187 209 221 220 166 74 150 166 96 120 212 209 60 26 34 353 169 152 247 251 180 267 35 161 166 300 291 277 292 315
258 261 107 347 210 216 225 258 248 216 196 205 215 199 198 220 187 225 175 68 105 162 180 171 221 323 327 13 67 238 195 235 96 86 202 194 256 238 262 333 328 323 341 328 305
290 264 197 256 326 241 211 228 236 227 245 229 238 147 135 216 220 223 198 189 144 164 168 114 221 193 209 138 117 212 225 197 171 160 232 228 277 277 287 295 324 317 307 315 326
220 239 202 211 238 232 254 196 212 220 223 220 228 205 171 211 207 192 232 172 187 171 175 145 225 207 265 287 298 234 241 212 209 223 230 266 264 277 291 303 301 309 318 311 304
225 235 297 212 224 211 225 232 248 198 194 222 231 206 203 211 175 201 175 198 192 148 156 146 230 74 286 228 235 256 241 229 237 244 248 257 268 269 283 311 318 321 314 303 305
193 233 297 254 220 229 222 234 236 227 227 234 220 238 237 230 236 272 282 159 140 150 155 160 158 132 256 44 20 288 223 210 220 228 220 241 249 273 291 324 311 299 302 287 286